INTELSAT 906 (IS-906)

Last updated on Sun Jun 21 2026 00:03:03 GMT+0000 (Coordinated Universal Time)

1 27513U 02041A 26171.19082373 .00000006 00000+0 00000+0 0 9999 2 27513 5.8098 72.8851 0004435 0.9940 327.3730 1.00270726 87059
UTC large
Height (km)
Speed (km/s)
/
Latitude / Longitude
Inclination (degrees)
Orbital Period (minutes)
Azimuth
Elevation
Range (km)
Doppler Factor

Next 0 passes for location: London (51.5072 / 0.1276)

No passes found over London.
INTELSAT 906 (IS-906)